Hourly Data Report for September 18, 2017

All times are specified in Local Standard Time (LST). Add 1 hour to adjust for Daylight Saving Time where and when it is observed.

EAST POINT (AUT)
PRINCE EDWARD ISLAND

46°27'36.000" N
61°59'18.000" W
7.70 m
8300418
71412
WEP

Download Data

Hourly Data (September 2017)
Hourly Data Report for September 18, 2017
Temp Definition
°C
Dew Point Temp Definition
°C
Rel Hum Definition
%
Wind Dir Definition
10's deg

Wind Spd Definition
km/h
Visibility Definition
km
Stn Press Definition
kPa
Hmdx Definition


Wind Chill Definition


Weather Definition


TIME
00:00 16.3 13.1 81 7 15   102.22     LegendNANA
01:00 16.1 14.0 87 10 14   102.22     LegendNANA
02:00 16.3 14.4 89 6 14   102.22     LegendNANA
03:00 16.3 14.9 92 6 13   102.21     LegendNANA
04:00 16.1 14.6 91 4 27   102.25     LegendNANA
05:00 15.7 14.3 91 6 25   102.26     LegendNANA
06:00 15.3 13.7 91 6 27   102.33     LegendNANA
07:00 15.2 13.2 88 5 24   102.38     LegendNANA
08:00 15.3 13.6 89 5 26   102.42     LegendNANA
09:00 15.5 14.2 92 6 20   102.46     LegendNANA
10:00 16.8 14.9 89 10 18   102.40     LegendNANA
11:00 15.8 14.1 90 11 12   102.42     LegendNANA
12:00 16.8 14.8 88 15 12   102.42     LegendNANA
13:00 16.7 14.6 87 12 10   102.40     LegendNANA
14:00 17.1 15.2 89 12 9   102.41     LegendNANA
15:00 17.1 15.4 90 10 15   102.41     LegendNANA
16:00 16.8 15.3 91 11 9   102.41     LegendNANA
17:00 17.4 15.5 89 15 19   102.41     LegendNANA
18:00 17.0 15.4 90 13 11   102.44     LegendNANA
19:00 17.2 15.7 91 15 10   102.47     LegendNANA
20:00 17.2 15.6 91 16 21   102.48     LegendNANA
21:00 17.1 15.7 91 16 17   102.51     LegendNANA
22:00 17.3 15.9 92 17 17   102.51     LegendNANA
23:00 17.3 16.0 92 17 17   102.49     LegendNANA

Notes on Data Quality.

Legend

  • E = Estimated
  • M = Missing
  • NA = Not Available
  • ‡ = Partner data that is not subject to review by the National Climate Archives
Date modified: